Radiation Dose at Monitoring Post of Fukushima Daini Nuclear Power Station
Date,Time,MP-1(microSv/h),MP-2(microSv/h),MP-3(microSv/h),MP-4(microSv/h),MP-5(microSv/h),MP-6(microSv/h),MP-7(microSv/h),Wind Direction,Wind Velocity(m/s),Rain
2014/12/28,00:00,0.598,0.381,0.637,0.579,0.567,0.261,0.237,north-northwest,2.1,No
2014/12/28,00:10,0.598,0.380,0.637,0.578,0.568,0.261,0.235,north,1.8,No
2014/12/28,00:20,0.596,0.382,0.636,0.578,0.571,0.260,0.236,west,1.5,No
2014/12/28,00:30,0.595,0.380,0.635,0.578,0.569,0.260,0.236,west-southwest,0.6,No
2014/12/28,00:40,0.595,0.381,0.638,0.580,0.568,0.260,0.235,west-southwest,0.6,No
2014/12/28,00:50,0.597,0.382,0.635,0.578,0.569,0.261,0.235,-,CALM,No
2014/12/28,01:00,0.596,0.381,0.637,0.576,0.568,0.261,0.235,south-southwest,0.6,No
2014/12/28,01:10,0.597,0.382,0.637,0.575,0.568,0.261,0.234,-,CALM,No
2014/12/28,01:20,0.598,0.380,0.638,0.579,0.567,0.261,0.235,-,CALM,No
2014/12/28,01:30,0.597,0.382,0.637,0.578,0.568,0.260,0.235,-,CALM,No
2014/12/28,01:40,0.596,0.381,0.637,0.577,0.568,0.261,0.235,-,CALM,No
2014/12/28,01:50,0.596,0.381,0.636,0.577,0.567,0.259,0.235,-,CALM,No
2014/12/28,02:00,0.596,0.382,0.638,0.578,0.568,0.262,0.234,-,CALM,No
2014/12/28,02:10,0.597,0.382,0.638,0.579,0.566,0.260,0.235,north,0.9,No
2014/12/28,02:20,0.596,0.381,0.639,0.579,0.567,0.259,0.235,north,1.6,No
2014/12/28,02:30,0.596,0.381,0.636,0.579,0.566,0.260,0.236,north,2.0,No
2014/12/28,02:40,0.597,0.382,0.636,0.578,0.568,0.259,0.235,north,1.9,No
2014/12/28,02:50,0.596,0.382,0.637,0.577,0.568,0.260,0.235,north-northwest,2.2,No
2014/12/28,03:00,0.596,0.380,0.637,0.579,0.570,0.260,0.235,north-northwest,2.2,No
2014/12/28,03:10,0.596,0.383,0.635,0.580,0.568,0.260,0.235,north,2.1,No
2014/12/28,03:20,0.596,0.382,0.637,0.577,0.566,0.260,0.235,north,1.9,No
2014/12/28,03:30,0.596,0.381,0.636,0.579,0.568,0.260,0.235,north,2.3,No
2014/12/28,03:40,0.596,0.382,0.637,0.579,0.569,0.261,0.235,north,1.9,No
2014/12/28,03:50,0.594,0.382,0.638,0.577,0.566,0.260,0.234,north,1.7,No
2014/12/28,04:00,0.598,0.381,0.637,0.578,0.567,0.259,0.234,north,1.2,No
2014/12/28,04:10,0.596,0.382,0.637,0.579,0.568,0.259,0.234,-,CALM,No
2014/12/28,04:20,0.596,0.382,0.636,0.579,0.568,0.260,0.234,-,CALM,No
2014/12/28,04:30,0.595,0.381,0.639,0.579,0.568,0.260,0.234,-,CALM,No
2014/12/28,04:40,0.597,0.381,0.637,0.578,0.567,0.260,0.234,north,0.7,No
2014/12/28,04:50,0.595,0.381,0.637,0.578,0.568,0.259,0.235,northwest,0.5,No
2014/12/28,05:00,0.595,0.380,0.636,0.579,0.567,0.260,0.234,northwest,0.8,No
2014/12/28,05:10,0.594,0.381,0.636,0.577,0.567,0.260,0.234,northwest,0.7,No
2014/12/28,05:20,0.596,0.380,0.636,0.579,0.569,0.260,0.235,north-northwest,0.8,No
2014/12/28,05:30,0.595,0.382,0.636,0.579,0.567,0.259,0.235,north,1.4,No
2014/12/28,05:40,0.595,0.382,0.637,0.580,0.567,0.260,0.234,north,1.2,No
2014/12/28,05:50,0.595,0.381,0.636,0.578,0.567,0.260,0.234,north,1.0,No
2014/12/28,06:00,0.596,0.381,0.637,0.577,0.565,0.260,0.234,north,0.6,No
2014/12/28,06:10,0.595,0.381,0.636,0.578,0.567,0.260,0.236,-,CALM,No
2014/12/28,06:20,0.597,0.381,0.637,0.578,0.568,0.259,0.234,-,CALM,No
2014/12/28,06:30,0.595,0.381,0.636,0.579,0.569,0.259,0.234,-,CALM,No
2014/12/28,06:40,0.594,0.380,0.638,0.579,0.568,0.259,0.235,southwest,0.8,No
2014/12/28,06:50,0.596,0.382,0.637,0.579,0.568,0.258,0.235,-,CALM,No
2014/12/28,07:00,0.596,0.381,0.637,0.577,0.569,0.260,0.236,-,CALM,No
2014/12/28,07:10,0.594,0.382,0.638,0.577,0.569,0.259,0.234,north-northwest,1.2,No
2014/12/28,07:20,0.595,0.381,0.636,0.578,0.570,0.260,0.234,north,1.4,No
2014/12/28,07:30,0.595,0.382,0.636,0.577,0.567,0.259,0.235,north-northwest,1.3,No
2014/12/28,07:40,0.594,0.383,0.636,0.577,0.567,0.259,0.234,north,1.8,No
2014/12/28,07:50,0.595,0.381,0.635,0.580,0.568,0.259,0.234,north,2.3,No
2014/12/28,08:00,0.595,0.383,0.636,0.578,0.570,0.258,0.233,north-northwest,2.4,No
2014/12/28,08:10,0.593,0.381,0.636,0.580,0.567,0.258,0.235,west-northwest,1.5,No
2014/12/28,08:20,0.595,0.383,0.636,0.579,0.568,0.259,0.235,west,2.0,No
2014/12/28,08:30,0.594,0.381,0.638,0.580,0.568,0.260,0.233,west,1.1,No
2014/12/28,08:40,0.596,0.382,0.638,0.580,0.568,0.259,0.235,west-northwest,0.5,No
2014/12/28,08:50,0.595,0.381,0.638,0.578,0.569,0.259,0.234,northwest,0.7,No
2014/12/28,09:00,0.596,0.382,0.636,0.581,0.569,0.258,0.234,-,CALM,No
2014/12/28,09:10,0.596,0.382,0.637,0.579,0.570,0.258,0.234,southwest,0.9,No
2014/12/28,09:20,0.595,0.382,0.638,0.579,0.567,0.258,0.233,south,1.0,No
2014/12/28,09:30,0.596,0.382,0.637,0.580,0.569,0.260,0.232,south-southwest,1.1,No
2014/12/28,09:40,0.596,0.383,0.639,0.580,0.568,0.258,0.233,south-southeast,1.2,No
2014/12/28,09:50,0.594,0.382,0.636,0.579,0.569,0.259,0.232,south-southeast,1.6,No
2014/12/28,10:00,0.595,0.381,0.638,0.581,0.568,0.259,0.234,south-southeast,1.2,No
2014/12/28,10:10,0.594,0.383,0.637,0.581,0.568,0.259,0.234,southeast,1.5,No
2014/12/28,10:20,0.596,0.382,0.638,0.580,0.568,0.259,0.233,-,CALM,No
2014/12/28,10:30,0.594,0.383,0.638,0.582,0.569,0.259,0.234,east,1.1,No
2014/12/28,10:40,0.594,0.382,0.639,0.582,0.568,0.260,0.234,east,1.7,No
2014/12/28,10:50,0.596,0.383,0.639,0.581,0.568,0.260,0.235,southeast,0.6,No
2014/12/28,11:00,0.596,0.382,0.637,0.581,0.567,0.260,0.234,east,1.4,No
2014/12/28,11:10,0.596,0.382,0.638,0.581,0.569,0.260,0.234,east-southeast,1.0,No
2014/12/28,11:20,0.596,0.382,0.637,0.581,0.568,0.260,0.236,east-southeast,2.5,No
2014/12/28,11:30,0.596,0.383,0.637,0.580,0.568,0.260,0.234,south-southeast,2.5,No
2014/12/28,11:40,0.598,0.383,0.641,0.582,0.569,0.260,0.234,southeast,2.3,No
2014/12/28,11:50,0.597,0.383,0.640,0.579,0.569,0.259,0.234,southeast,1.9,No
2014/12/28,12:00,0.598,0.383,0.639,0.582,0.568,0.260,0.233,south-southeast,2.8,No
2014/12/28,12:10,0.596,0.384,0.640,0.582,0.568,0.260,0.234,southeast,3.0,No
2014/12/28,12:20,0.596,0.383,0.638,0.581,0.569,0.261,0.233,east-southeast,2.5,No
2014/12/28,12:30,0.598,0.383,0.639,0.582,0.567,0.260,0.235,southeast,1.1,No
2014/12/28,12:40,0.597,0.382,0.638,0.581,0.570,0.261,0.234,south-southeast,1.4,No
2014/12/28,12:50,0.599,0.384,0.637,0.581,0.570,0.260,0.234,southeast,2.7,No
2014/12/28,13:00,0.596,0.383,0.638,0.581,0.569,0.259,0.235,southeast,2.1,No
2014/12/28,13:10,0.598,0.383,0.640,0.581,0.569,0.262,0.235,south-southeast,3.9,No
2014/12/28,13:20,0.598,0.383,0.638,0.580,0.569,0.260,0.235,south,4.4,No
2014/12/28,13:30,0.598,0.384,0.640,0.581,0.569,0.261,0.234,south,3.9,No
2014/12/28,13:40,0.598,0.384,0.638,0.581,0.571,0.261,0.235,south,4.5,No
2014/12/28,13:50,0.598,0.383,0.639,0.581,0.570,0.260,0.235,south,3.5,No
2014/12/28,14:00,0.597,0.383,0.640,0.583,0.570,0.260,0.235,south-southeast,4.2,No
2014/12/28,14:10,0.599,0.383,0.639,0.580,0.568,0.261,0.234,south-southeast,4.5,No
2014/12/28,14:20,0.597,0.384,0.639,0.582,0.568,0.260,0.236,south-southeast,3.9,No
2014/12/28,14:30,0.598,0.384,0.639,0.581,0.570,0.260,0.234,south,3.6,No
2014/12/28,14:40,0.598,0.383,0.639,0.581,0.570,0.261,0.235,south,3.6,No
2014/12/28,14:50,0.599,0.383,0.639,0.581,0.567,0.262,0.234,south,3.5,No
2014/12/28,15:00,0.597,0.384,0.639,0.581,0.569,0.261,0.235,south,3.8,No
2014/12/28,15:10,0.599,0.383,0.639,0.581,0.568,0.261,0.234,south,3.5,No
2014/12/28,15:20,0.596,0.383,0.640,0.582,0.570,0.261,0.235,south,3.2,No
2014/12/28,15:30,0.599,0.383,0.639,0.581,0.568,0.260,0.236,south,2.5,No
2014/12/28,15:40,0.597,0.383,0.639,0.580,0.568,0.261,0.235,south,2.8,No
2014/12/28,15:50,0.596,0.383,0.640,0.581,0.568,0.260,0.237,south,2.6,No
2014/12/28,16:00,0.598,0.383,0.638,0.579,0.567,0.260,0.236,south,4.3,No
2014/12/28,16:10,0.598,0.384,0.638,0.580,0.568,0.260,0.236,south,4.9,No
2014/12/28,16:20,0.597,0.384,0.640,0.580,0.569,0.261,0.235,south-southwest,4.7,No
2014/12/28,16:30,0.597,0.383,0.638,0.579,0.569,0.260,0.235,south-southwest,5.2,No
2014/12/28,16:40,0.596,0.384,0.639,0.580,0.567,0.261,0.235,south-southwest,5.2,No
2014/12/28,16:50,0.597,0.382,0.638,0.579,0.569,0.261,0.236,south-southwest,5.4,No
2014/12/28,17:00,0.596,0.383,0.636,0.581,0.567,0.261,0.235,south-southwest,5.4,No
2014/12/28,17:10,0.600,0.383,0.636,0.580,0.569,0.261,0.236,south-southwest,5.6,No
2014/12/28,17:20,0.597,0.383,0.637,0.580,0.569,0.262,0.235,south-southwest,5.7,No
2014/12/28,17:30,0.595,0.381,0.638,0.580,0.568,0.260,0.234,south-southwest,6.1,No
2014/12/28,17:40,0.598,0.384,0.638,0.580,0.569,0.260,0.236,south-southwest,6.3,No
2014/12/28,17:50,0.598,0.385,0.638,0.580,0.568,0.263,0.234,south-southwest,5.3,No
2014/12/28,18:00,0.597,0.383,0.639,0.580,0.568,0.262,0.236,south-southwest,5.3,No
2014/12/28,18:10,0.594,0.382,0.638,0.578,0.568,0.262,0.235,south-southwest,1.5,No
2014/12/28,18:20,0.596,0.384,0.637,0.579,0.568,0.262,0.236,-,CALM,No
2014/12/28,18:30,0.597,0.383,0.640,0.579,0.569,0.261,0.235,south,0.5,No
2014/12/28,18:40,0.594,0.383,0.636,0.580,0.569,0.262,0.235,south-southwest,2.1,No
2014/12/28,18:50,0.597,0.383,0.637,0.579,0.568,0.261,0.235,south-southwest,2.0,No
2014/12/28,19:00,0.596,0.383,0.638,0.579,0.567,0.261,0.236,south-southwest,1.8,No
2014/12/28,19:10,0.596,0.383,0.638,0.580,0.568,0.260,0.236,south-southwest,2.3,No
2014/12/28,19:20,0.598,0.382,0.639,0.579,0.571,0.261,0.235,south-southwest,2.8,No
2014/12/28,19:30,0.597,0.382,0.638,0.578,0.569,0.260,0.235,south-southwest,2.7,No
2014/12/28,19:40,0.597,0.383,0.637,0.580,0.568,0.260,0.235,south-southwest,3.6,No
2014/12/28,19:50,0.596,0.381,0.638,0.578,0.568,0.262,0.236,south-southwest,3.8,No
2014/12/28,20:00,0.597,0.382,0.638,0.579,0.567,0.261,0.234,south-southwest,3.5,No
2014/12/28,20:10,0.598,0.383,0.638,0.581,0.568,0.262,0.236,south-southwest,3.0,No
2014/12/28,20:20,0.596,0.382,0.638,0.579,0.569,0.261,0.234,south-southwest,2.5,No
2014/12/28,20:30,0.598,0.382,0.638,0.580,0.568,0.262,0.236,south-southwest,3.0,No
2014/12/28,20:40,0.597,0.383,0.637,0.581,0.567,0.261,0.237,southwest,3.6,No
2014/12/28,20:50,0.597,0.382,0.638,0.578,0.569,0.262,0.236,south-southwest,3.7,No
2014/12/28,21:00,0.596,0.383,0.639,0.579,0.566,0.260,0.235,south-southwest,4.4,No
2014/12/28,21:10,0.596,0.382,0.637,0.580,0.567,0.261,0.236,south-southwest,4.5,No
2014/12/28,21:20,0.597,0.382,0.640,0.579,0.566,0.261,0.236,south-southwest,4.5,No
2014/12/28,21:30,0.598,0.381,0.639,0.579,0.567,0.262,0.235,south-southwest,4.2,No
2014/12/28,21:40,0.598,0.382,0.638,0.579,0.569,0.261,0.235,south-southwest,3.9,No
2014/12/28,21:50,0.597,0.383,0.639,0.580,0.568,0.262,0.235,south-southwest,4.7,No
2014/12/28,22:00,0.598,0.383,0.638,0.581,0.570,0.262,0.235,south-southwest,4.4,No
2014/12/28,22:10,0.599,0.383,0.638,0.580,0.567,0.261,0.235,south-southwest,3.9,No
2014/12/28,22:20,0.598,0.382,0.639,0.580,0.568,0.261,0.235,southwest,3.6,No
2014/12/28,22:30,0.598,0.382,0.638,0.578,0.568,0.261,0.236,south-southwest,3.7,No
2014/12/28,22:40,0.597,0.381,0.639,0.579,0.569,0.261,0.236,south-southwest,3.5,No
2014/12/28,22:50,0.597,0.383,0.638,0.581,0.567,0.262,0.234,south-southwest,2.9,No
2014/12/28,23:00,0.596,0.383,0.638,0.580,0.567,0.263,0.236,south-southwest,2.6,No
2014/12/28,23:10,0.598,0.384,0.638,0.580,0.568,0.262,0.235,southwest,2.7,No
2014/12/28,23:20,0.597,0.382,0.638,0.579,0.570,0.263,0.235,southwest,2.2,No
2014/12/28,23:30,0.599,0.382,0.639,0.580,0.569,0.262,0.236,west-southwest,1.7,No
2014/12/28,23:40,0.599,0.384,0.638,0.578,0.568,0.262,0.235,northwest,0.6,No
2014/12/28,23:50,0.597,0.382,0.639,0.580,0.568,0.262,0.234,west-southwest,1.7,No
